NIMBUS 2 DEB, 28609

Orbit data source: Space-Track

NIMBUS 2 DEB, 28609 is space debris in SSO originally from a launch on Sun, 15 May 1966 UTC launched from the Air Force Western Test Range (AFWTR). Debris objects in space refer to the collection of defunct objects orbiting the Earth. Examples of debris include non-operational satellites, rocket bodies, and fragments generated from explosions, collisions, or faulty payload assembly.

Loading next visibility...
Identifier
28609, 1966-040Y
Orbit
SSO
Country
Flag of USUS
Related business
Manufacturer
Unknown
Mission
Spacecraft
Bus & Motor
Unknown
Mass
Unknown
Launch date (UTC)
1966-05-15 (59 years ago)
Launch vehicle
Unknown
Launch site
Air Force Western Test Range (AFWTR)
Object type
Payload
Rocket body
Debris
Shape & HBR
Unknown shape, 0.1 m
Radar Cross Section
Small (<0.1 m²)

Expand to show TLE details & history
Last TLE update: 4 days ago

TLE from 4 days ago
0 NIMBUS 2 DEB
1 28609U 66040Y   25287.51759615  .00001294  00000-0  21052-2 0  9992
2 28609 100.3414 188.9810 0048437 203.7006 335.8019 13.49659462602038
Epoch: 2025-10-14T12:25Z
TLE epoch observation values (Epoch: 2025-10-14T12:25:20.307Z)
Latitude
0.60645°
Longitude
159.4516°
Altitude
1,043.299 km
Speed
7.346 km/s
True Right ascension
00h 36m 21s
True Declination
0° 36' 11"
Sunlit
Object was in full shadow at epoch
Visualization orbit readout
Latitude
Unknown
Longitude
Unknown
Altitude
Unknown
Speed
Unknown
Apparent Right ascension
Unknown
Apparent Declination
Unknown
Sunlit
N/A
Visualization observer readout
Local Sidereal Time
20:00:40
Azimuth
Unknown
Elevation
Unknown
Doppler factor
Unknown
Orbital elements
Apogee altitude
1,106.928 km
Perigee altitude
1,034.767 km
Semi-major axis
7,448.984 km
Eccentricity
0.00484
Inclination
100.3414°
RAAN
188.981°
Arg. of periapsis
203.7006°
True anomaly
335.57313°
Mean anomaly
335.8019°
Eccentric anomaly
335.68764°
Mean motion
3.37596 °/min
Orbital period
106.64 mins
BSTAR
0.0021052
Loading maneuver chart data...
Computing Atmospheric mass density...
Loading historical data...
Loading historical data...
Loading historical data...
Loading historical data...
Loading historical data...
Loading historical data...
Loading historical data...

Documentation

Showing up to 5 results
|